| time (UTC) | temp F | wind direction | speed knots | gust knots | rain 1hr in | rain 24hr in | rain mn in | humidity % | barometer mb |
| 20260506160759 | 55 | 70 | 1.7 | 4.3 | 0.00 | 0.04 | 0.04 | 88 | 1015.4 |
| 20260506160256 | 55 | 46 | 1.7 | 4.3 | 0.00 | 0.04 | 0.04 | 88 | 1015.4 |
| 20260506155755 | 55 | 59 | 0.0 | 3.5 | 0.02 | 0.04 | 0.04 | 88 | 1015.4 |
| 20260506155251 | 54 | 64 | 1.7 | 5.2 | 0.07 | 0.04 | 0.04 | 88 | 1015.2 |
| 20260506153358 | 54 | 46 | 2.6 | 3.5 | 0.07 | 0.02 | 0.02 | 85 | 1017.3 |
| 20260506152855 | 54 | 79 | 0.9 | 1.7 | 0.07 | 0.01 | 0.01 | 85 | 1017.3 |
| 20260506152352 | 54 | 94 | 0.9 | 1.7 | 0.02 | 0.00 | 0.00 | 84 | 1017.3 |
| 20260506151850 | 54 | 61 | 0.9 | 3.5 | 0.00 | 0.00 | 0.00 | 83 | 1017.2 |
| 20260506151347 | 54 | 50 | 0.9 | 5.2 | 0.00 | 0.00 | 0.00 | 81 | 1016.7 |
| 20260506150844 | 54 | 60 | 2.6 | 3.5 | 0.00 | 0.00 | 0.00 | 82 | 1016.9 |
| 20260506150341 | 54 | 37 | 4.3 | 5.2 | 0.00 | 0.00 | 0.00 | 82 | 1016.8 |
| 20260506145837 | 54 | 88 | 0.9 | 2.6 | 0.00 | 0.00 | 0.00 | 82 | 1016.5 |
| 20260506145334 | 54 | 76 | 1.7 | 3.5 | 0.00 | 0.00 | 0.00 | 82 | 1016.2 |
| 20260506144832 | 54 | 48 | 1.7 | 4.3 | 0.00 | 0.00 | 0.00 | 81 | 1015.6 |
| 20260506144328 | 54 | 55 | 2.6 | 5.2 | 0.00 | 0.00 | 0.00 | 81 | 1014.8 |
| 20260506143827 | 54 | 35 | 2.6 | 4.3 | 0.00 | 0.00 | 0.00 | 81 | 1016.2 |
| 20260506143323 | 54 | 68 | 1.7 | 3.5 | 0.00 | 0.00 | 0.00 | 81 | 1016.5 |
| 20260506142821 | 54 | 4 | 2.6 | 2.6 | 0.00 | 0.00 | 0.00 | 81 | 1016.5 |
| 20260506142319 | 54 | 71 | 1.7 | 5.2 | 0.00 | 0.00 | 0.00 | 80 | 1016.5 |
| 20260506141817 | 54 | 51 | 1.7 | 5.2 | 0.00 | 0.00 | 0.00 | 80 | 1015.9 |
| 20260506141315 | 54 | 37 | 3.5 | 6.1 | 0.00 | 0.00 | 0.00 | 80 | 1016.0 |
| 20260506140813 | 54 | 49 | 2.6 | 4.3 | 0.00 | 0.00 | 0.00 | 81 | 1016.1 |
| 20260506140309 | 54 | 42 | 1.7 | 4.3 | 0.00 | 0.00 | 0.00 | 80 | 1015.5 |
| 20260506135806 | 54 | 72 | 0.9 | 3.5 | 0.00 | 0.00 | 0.00 | 81 | 1015.3 |
| 20260506135305 | 54 | 38 | 1.7 | 2.6 | 0.00 | 0.00 | 0.00 | 81 | 1015.5 |
| 20260506134759 | 54 | 34 | 3.5 | 5.2 | 0.00 | 0.00 | 0.00 | 81 | 1015.4 |
| 20260506134255 | 53 | 47 | 4.3 | 5.2 | 0.00 | 0.00 | 0.00 | 81 | 1015.1 |
| 20260506133753 | 53 | 91 | 0.0 | 5.2 | 0.00 | 0.00 | 0.00 | 81 | 1015.2 |
| 20260506133250 | 53 | 78 | 1.7 | 4.3 | 0.00 | 0.00 | 0.00 | 81 | 1015.3 |
| 20260506132746 | 53 | 41 | 4.3 | 4.3 | 0.00 | 0.00 | 0.00 | 81 | 1015.2 |
| 20260506132244 | 53 | 50 | 1.7 | 3.5 | 0.00 | 0.00 | 0.00 | 81 | 1015.0 |
| 20260506131742 | 53 | 62 | 3.5 | 4.3 | 0.00 | 0.00 | 0.00 | 81 | 1014.8 |
| 20260506131237 | 53 | 57 | 2.6 | 4.3 | 0.00 | 0.00 | 0.00 | 81 | 1014.8 |
| 20260506130734 | 53 | 66 | 2.6 | 4.3 | 0.00 | 0.00 | 0.00 | 81 | 1014.8 |
| 20260506130231 | 53 | 42 | 3.5 | 5.2 | 0.00 | 0.00 | 0.00 | 81 | 1014.8 |
| 20260506125729 | 53 | 26 | 2.6 | 7.0 | 0.00 | 0.00 | 0.00 | 81 | 1014.4 |
| 20260506125227 | 53 | 92 | 1.7 | 3.5 | 0.00 | 0.00 | 0.00 | 81 | 1014.7 |
| 20260506124725 | 53 | 54 | 0.9 | 4.3 | 0.00 | 0.00 | 0.00 | 81 | 1014.7 |
| 20260506124222 | 53 | 74 | 1.7 | 3.5 | 0.00 | 0.00 | 0.00 | 81 | 1014.7 |
| 20260506123719 | 53 | 45 | 2.6 | 3.5 | 0.00 | 0.00 | 0.00 | 81 | 1014.7 |
| 20260506123218 | 53 | 53 | 0.0 | 3.5 | 0.00 | 0.00 | 0.00 | 81 | 1014.5 |
| 20260506122715 | 53 | 34 | 3.5 | 4.3 | 0.00 | 0.00 | 0.00 | 81 | 1014.5 |
| 20260506122212 | 53 | 95 | 1.7 | 4.3 | 0.00 | 0.00 | 0.00 | 81 | 1014.6 |
| 20260506121710 | 53 | 57 | 0.0 | 5.2 | 0.00 | 0.00 | 0.00 | 81 | 1014.4 |
| 20260506121206 | 53 | 41 | 4.3 | 5.2 | 0.00 | 0.00 | 0.00 | 80 | 1014.5 |
| 20260506120704 | 54 | 29 | 1.7 | 4.3 | 0.00 | 0.00 | 0.00 | 80 | 1014.0 |
| 20260506120201 | 54 | 53 | 2.6 | 4.3 | 0.00 | 0.00 | 0.00 | 79 | 1014.3 |
| 20260506115659 | 54 | 55 | 1.7 | 6.1 | 0.00 | 0.00 | 0.00 | 78 | 1014.2 |
| 20260506115157 | 54 | 28 | 0.9 | 5.2 | 0.00 | 0.00 | 0.00 | 78 | 1014.0 |
| 20260506114654 | 54 | 57 | 2.6 | 5.2 | 0.00 | 0.00 | 0.00 | 77 | 1014.0 |
| 20260506114152 | 54 | 58 | 1.7 | 4.3 | 0.00 | 0.00 | 0.00 | 77 | 1014.0 |
| 20260506113650 | 54 | 76 | 1.7 | 3.5 | 0.00 | 0.00 | 0.00 | 77 | 1013.7 |
| 20260506113147 | 55 | 51 | 2.6 | 5.2 | 0.00 | 0.00 | 0.00 | 77 | 1013.5 |
| 20260506112643 | 55 | 110 | 1.7 | 3.5 | 0.00 | 0.00 | 0.00 | 76 | 1013.5 |
| 20260506112141 | 55 | 46 | 3.5 | 3.5 | 0.00 | 0.00 | 0.00 | 76 | 1013.3 |
| 20260506111639 | 55 | 64 | 1.7 | 5.2 | 0.00 | 0.00 | 0.00 | 76 | 1013.6 |
| 20260506111136 | 55 | 35 | 1.7 | 5.2 | 0.00 | 0.00 | 0.00 | 75 | 1013.5 |
| 20260506110634 | 55 | 47 | 1.7 | 4.3 | 0.00 | 0.00 | 0.00 | 76 | 1013.3 |
| 20260506110131 | 55 | 54 | 4.3 | 4.3 | 0.00 | 0.00 | 0.00 | 75 | 1013.0 |
| 20260506105627 | 55 | 29 | 2.6 | 5.2 | 0.00 | 0.00 | 0.00 | 75 | 1013.1 |
| 20260506105124 | 55 | 45 | 3.5 | 5.2 | 0.00 | 0.00 | 0.00 | 75 | 1013.2 |
| 20260506104622 | 55 | 51 | 2.6 | 5.2 | 0.00 | 0.00 | 0.00 | 74 | 1013.0 |
| 20260506104120 | 56 | 51 | 0.9 | 3.5 | 0.00 | 0.00 | 0.00 | 74 | 1013.0 |
| 20260506103617 | 56 | 69 | 0.9 | 4.3 | 0.00 | 0.00 | 0.00 | 73 | 1012.7 |
| 20260506103114 | 56 | 52 | 1.7 | 3.5 | 0.00 | 0.00 | 0.00 | 73 | 1012.8 |
| 20260506102612 | 56 | 66 | 0.9 | 4.3 | 0.00 | 0.00 | 0.00 | 73 | 1012.6 |
| 20260506102109 | 56 | 49 | 1.7 | 4.3 | 0.00 | 0.00 | 0.00 | 73 | 1012.5 |
| 20260506101606 | 56 | 95 | 0.9 | 4.3 | 0.00 | 0.00 | 0.00 | 73 | 1012.7 |
| 20260506101102 | 56 | 52 | 3.5 | 4.3 | 0.00 | 0.00 | 0.00 | 73 | 1012.5 |
| 20260506100601 | 56 | 53 | 0.0 | 3.5 | 0.00 | 0.00 | 0.00 | 73 | 1012.2 |
| 20260506100058 | 56 | 42 | 2.6 | 3.5 | 0.00 | 0.00 | 0.00 | 73 | 1012.1 |
| 20260506095557 | 56 | 65 | 1.7 | 4.3 | 0.00 | 0.00 | 0.00 | 73 | 1012.1 |
| 20260506095053 | 56 | 60 | 1.7 | 3.5 | 0.00 | 0.00 | 0.00 | 73 | 1012.2 |
| 20260506094551 | 56 | 55 | 1.7 | 3.5 | 0.00 | 0.00 | 0.00 | 73 | 1012.2 |
| 20260506094048 | 56 | 63 | 2.6 | 5.2 | 0.00 | 0.00 | 0.00 | 73 | 1012.0 |
| 20260506093546 | 56 | 60 | 2.6 | 3.5 | 0.00 | 0.00 | 0.00 | 73 | 1012.0 |
| 20260506093043 | 57 | 66 | 3.5 | 3.5 | 0.00 | 0.00 | 0.00 | 73 | 1011.9 |
| 20260506092542 | 57 | 50 | 1.7 | 3.5 | 0.00 | 0.00 | 0.00 | 73 | 1011.8 |
| 20260506092038 | 57 | 80 | 0.9 | 4.3 | 0.00 | 0.00 | 0.00 | 73 | 1012.0 |
| 20260506091537 | 57 | 45 | 3.5 | 4.3 | 0.00 | 0.00 | 0.00 | 73 | 1011.9 |
| 20260506091033 | 57 | 60 | 1.7 | 4.3 | 0.00 | 0.00 | 0.00 | 73 | 1011.9 |
| 20260506090531 | 57 | 60 | 1.7 | 5.2 | 0.00 | 0.00 | 0.00 | 72 | 1011.9 |
| 20260506090027 | 57 | 38 | 1.7 | 3.5 | 0.00 | 0.00 | 0.00 | 72 | 1011.7 |
| 20260506085524 | 57 | 73 | 2.6 | 5.2 | 0.00 | 0.00 | 0.00 | 72 | 1011.5 |
| 20260506085020 | 57 | 27 | 1.7 | 4.3 | 0.00 | 0.00 | 0.00 | 72 | 1011.4 |
| 20260506084518 | 57 | 41 | 1.7 | 3.5 | 0.00 | 0.00 | 0.00 | 72 | 1011.5 |
| 20260506084013 | 57 | 62 | 1.7 | 4.3 | 0.00 | 0.00 | 0.00 | 72 | 1011.6 |
| 20260506083511 | 57 | 95 | 0.9 | 3.5 | 0.00 | 0.00 | 0.00 | 72 | 1011.5 |
| 20260506083009 | 57 | 30 | 0.9 | 3.5 | 0.00 | 0.00 | 0.00 | 72 | 1011.6 |
| 20260506082505 | 57 | 61 | 1.7 | 4.3 | 0.00 | 0.00 | 0.00 | 72 | 1011.5 |
| 20260506082001 | 57 | 58 | 2.6 | 3.5 | 0.00 | 0.00 | 0.00 | 72 | 1011.5 |
| 20260506081459 | 57 | 70 | 0.0 | 3.5 | 0.00 | 0.00 | 0.00 | 72 | 1011.5 |
| 20260506080956 | 57 | 45 | 2.6 | 4.3 | 0.00 | 0.00 | 0.00 | 72 | 1011.5 |
| 20260506080453 | 57 | 58 | 1.7 | 2.6 | 0.00 | 0.00 | 0.00 | 72 | 1011.3 |
| 20260506073437 | 57 | 56 | 1.7 | 5.2 | 0.00 | 0.00 | 0.00 | 72 | 1010.9 |
| 20260506072934 | 58 | 44 | 2.6 | 3.5 | 0.00 | 0.00 | 0.00 | 72 | 1011.1 |
| 20260506072431 | 58 | 39 | 2.6 | 5.2 | 0.00 | 0.00 | 0.00 | 72 | 1011.1 |
| 20260506071929 | 58 | 53 | 2.6 | 3.5 | 0.00 | 0.00 | 0.00 | 74 | 1010.9 |
| 20260506071427 | 58 | 43 | 0.0 | 3.5 | 0.00 | 0.00 | 0.00 | 75 | 1010.9 |
| 20260506070924 | 58 | 84 | 1.7 | 4.3 | 0.00 | 0.00 | 0.00 | 75 | 1010.7 |
| 20260506070420 | 58 | 61 | 2.6 | 4.3 | 0.00 | 0.00 | 0.00 | 75 | 1011.1 |
| 20260506062358 | 59 | 25 | 0.9 | 5.2 | 0.00 | 0.00 | 0.00 | 75 | 1011.3 |
| 20260506061853 | 59 | 56 | 1.7 | 3.5 | 0.00 | 0.00 | 0.00 | 75 | 1011.1 |
| 20260506061350 | 59 | 77 | 2.6 | 4.3 | 0.00 | 0.00 | 0.00 | 74 | 1011.2 |
| 20260506060849 | 59 | 55 | 1.7 | 1.7 | 0.00 | 0.00 | 0.00 | 75 | 1011.0 |
| 20260506060346 | 59 | 14 | 0.0 | 3.5 | 0.00 | 0.00 | 0.00 | 74 | 1011.2 |
| 20260506051318 | 60 | 29 | 1.7 | 5.2 | 0.00 | 0.00 | 0.00 | 74 | 1011.1 |
| 20260506050816 | 60 | 55 | 1.7 | 5.2 | 0.00 | 0.00 | 0.00 | 74 | 1010.9 |
| 20260506050313 | 60 | 43 | 2.6 | 4.3 | 0.00 | 0.00 | 0.00 | 74 | 1011.0 |
| 20260506044804 | 61 | 65 | 3.5 | 3.5 | 0.00 | 0.00 | 0.00 | 77 | 1011.1 |
| 20260506044301 | 62 | 55 | 2.6 | 3.5 | 0.00 | 0.00 | 0.00 | 77 | 1011.0 |
| 20260506043758 | 62 | 45 | 2.6 | 4.3 | 0.00 | 0.00 | 0.00 | 77 | 1010.9 |
| 20260506043255 | 62 | 56 | 0.0 | 4.3 | 0.00 | 0.00 | 0.00 | 77 | 1010.8 |
| 20260506042754 | 62 | 23 | 0.0 | 3.5 | 0.00 | 0.00 | 0.00 | 77 | 1011.2 |
| 20260506042253 | 62 | 31 | 4.3 | 6.1 | 0.00 | 0.00 | 0.00 | 77 | 1011.0 |
| 20260506041751 | 62 | 37 | 4.3 | 7.0 | 0.00 | 0.00 | 0.00 | 77 | 1011.0 |
| 20260506041247 | 62 | 29 | 1.7 | 4.3 | 0.00 | 0.00 | 0.00 | 77 | 1010.8 |
| 20260506040745 | 62 | 57 | 3.5 | 5.2 | 0.00 | 0.00 | 0.00 | 76 | 1010.7 |
| 20260506040242 | 62 | 37 | 3.5 | 3.5 | 0.00 | 0.00 | 0.00 | 76 | 1010.7 |
| 20260506035738 | 63 | 44 | 4.3 | 5.2 | 0.00 | 0.00 | 0.00 | 76 | 1010.6 |
| 20260506035235 | 63 | 25 | 3.5 | 6.1 | 0.00 | 0.00 | 0.00 | 76 | 1010.4 |
| 20260506034733 | 63 | 77 | 1.7 | 4.3 | 0.00 | 0.00 | 0.00 | 76 | 1010.3 |
| 20260506034230 | 63 | 42 | 1.7 | 5.2 | 0.00 | 0.00 | 0.00 | 76 | 1010.4 |
| 20260506033727 | 63 | 37 | 4.3 | 5.2 | 0.00 | 0.00 | 0.00 | 76 | 1010.1 |
| 20260506033224 | 63 | 47 | 1.7 | 4.3 | 0.00 | 0.00 | 0.00 | 76 | 1010.0 |
| 20260506032721 | 64 | 26 | 2.6 | 5.2 | 0.00 | 0.00 | 0.00 | 75 | 1010.2 |
| 20260506032217 | 64 | 61 | 1.7 | 7.0 | 0.00 | 0.00 | 0.00 | 75 | 1009.9 |
| 20260506031714 | 64 | 60 | 1.7 | 5.2 | 0.00 | 0.00 | 0.00 | 75 | 1010.2 |
| 20260506031212 | 64 | 40 | 1.7 | 3.5 | 0.00 | 0.00 | 0.00 | 75 | 1010.2 |
| 20260506030710 | 64 | 35 | 2.6 | 3.5 | 0.00 | 0.00 | 0.00 | 75 | 1010.1 |
| 20260506030207 | 65 | 85 | 3.5 | 5.2 | 0.00 | 0.00 | 0.00 | 75 | 1009.9 |
| 20260506025703 | 65 | 59 | 1.7 | 6.1 | 0.00 | 0.00 | 0.00 | 75 | 1009.9 |
| 20260506025200 | 65 | 342 | 1.7 | 4.3 | 0.00 | 0.00 | 0.00 | 74 | 1009.6 |
| 20260506024657 | 66 | 59 | 0.9 | 3.5 | 0.00 | 0.00 | 0.00 | 74 | 1009.7 |
| 20260506024153 | 66 | 60 | 0.0 | 5.2 | 0.00 | 0.00 | 0.00 | 74 | 1009.5 |
| 20260506023649 | 67 | 40 | 1.7 | 7.0 | 0.00 | 0.00 | 0.00 | 73 | 1009.3 |
| 20260506023147 | 67 | 27 | 3.5 | 4.3 | 0.00 | 0.00 | 0.00 | 73 | 1009.1 |
| 20260506022644 | 68 | 359 | 0.9 | 3.5 | 0.00 | 0.00 | 0.00 | 73 | 1008.7 |
| 20260506022141 | 68 | 71 | 0.0 | 6.1 | 0.00 | 0.00 | 0.00 | 73 | 1008.6 |
| 20260506021639 | 68 | 325 | 2.6 | 3.5 | 0.00 | 0.00 | 0.00 | 73 | 1008.7 |
| 20260506021136 | 68 | 50 | 2.6 | 3.5 | 0.00 | 0.00 | 0.00 | 73 | 1008.5 |
| 20260506020633 | 69 | 31 | 2.6 | 3.5 | 0.00 | 0.00 | 0.00 | 72 | 1008.2 |
| 20260506020131 | 69 | 42 | 2.6 | 3.5 | 0.00 | 0.00 | 0.00 | 72 | 1008.3 |
| 20260506015628 | 69 | 321 | 0.0 | 2.6 | 0.00 | 0.00 | 0.00 | 71 | 1008.3 |
| 20260506015125 | 69 | 45 | 1.7 | 4.3 | 0.00 | 0.00 | 0.00 | 71 | 1008.0 |
| 20260506014623 | 70 | 41 | 0.9 | 3.5 | 0.00 | 0.00 | 0.00 | 71 | 1008.1 |
| 20260506014118 | 70 | 26 | 3.5 | 3.5 | 0.00 | 0.00 | 0.00 | 71 | 1008.0 |
| 20260506013617 | 70 | 28 | 0.0 | 3.5 | 0.00 | 0.00 | 0.00 | 71 | 1007.5 |
| 20260506013113 | 71 | 36 | 0.9 | 2.6 | 0.00 | 0.00 | 0.00 | 71 | 1007.5 |
| 20260506012609 | 71 | 65 | 0.0 | 2.6 | 0.00 | 0.00 | 0.00 | 71 | 1007.6 |
| 20260506012106 | 71 | 58 | 0.0 | 1.7 | 0.00 | 0.00 | 0.00 | 70 | 1007.5 |
| 20260506011604 | 71 | 83 | 0.9 | 3.5 | 0.00 | 0.00 | 0.00 | 70 | 1007.5 |
| 20260506011100 | 71 | 13 | 0.0 | 1.7 | 0.00 | 0.00 | 0.00 | 69 | 1007.3 |
| 20260506010600 | 72 | 91 | 0.0 | 1.7 | 0.00 | 0.00 | 0.00 | 68 | 1007.2 |
| 20260506010056 | 72 | 27 | 0.0 | 3.5 | 0.00 | 0.00 | 0.00 | 68 | 1007.1 |
| 20260506005553 | 72 | 321 | 0.0 | 1.7 | 0.00 | 0.00 | 0.00 | 68 | 1007.7 |
| 20260506005049 | 72 | 36 | 0.0 | 1.7 | 0.00 | 0.00 | 0.00 | 68 | 1007.0 |
| 20260506004546 | 73 | 42 | 1.7 | 3.5 | 0.00 | 0.00 | 0.00 | 68 | 1006.5 |
| 20260506004043 | 73 | 35 | 1.7 | 3.5 | 0.00 | 0.00 | 0.00 | 67 | 1006.8 |
| 20260506003539 | 73 | 41 | 1.7 | 2.6 | 0.00 | 0.00 | 0.00 | 67 | 1006.7 |
| 20260506003036 | 73 | 23 | 0.0 | 1.7 | 0.00 | 0.00 | 0.00 | 67 | 1006.7 |
| 20260506002532 | 73 | 37 | 0.0 | 2.6 | 0.00 | 0.00 | 0.00 | 66 | 1006.4 |
| 20260506002027 | 73 | 51 | 0.9 | 2.6 | 0.00 | 0.00 | 0.00 | 65 | 1006.2 |
| 20260506001524 | 74 | 37 | 2.6 | 3.5 | 0.00 | 0.00 | 0.00 | 65 | 1006.4 |
| 20260506001021 | 74 | 89 | 0.0 | 3.5 | 0.00 | 0.00 | 0.00 | 65 | 1006.4 |
| 20260506000519 | 74 | 4 | 0.9 | 5.2 | 0.00 | 0.00 | 0.00 | 64 | 1006.3 |
| 20260506000016 | 75 | 292 | 0.0 | 5.2 | 0.00 | 0.00 | 0.00 | 64 | 1006.3 |
| 20260505235514 | 75 | 6 | 1.7 | 2.6 | 0.00 | 0.00 | 0.00 | 65 | 1006.6 |
| 20260505235010 | 76 | 33 | 0.9 | 5.2 | 0.00 | 0.00 | 0.00 | 63 | 1006.3 |
| 20260505234508 | 77 | 312 | 2.6 | 3.5 | 0.00 | 0.00 | 0.00 | 62 | 1006.1 |
| 20260505234004 | 77 | 6 | 0.9 | 4.3 | 0.00 | 0.00 | 0.00 | 62 | 1006.2 |
| 20260505233502 | 77 | 7 | 1.7 | 3.5 | 0.00 | 0.00 | 0.00 | 62 | 1006.3 |
| 20260505232959 | 78 | 15 | 1.7 | 3.5 | 0.00 | 0.00 | 0.00 | 61 | 1006.0 |
| 20260505232457 | 78 | 26 | 2.6 | 2.6 | 0.00 | 0.00 | 0.00 | 60 | 1005.9 |
| 20260505231954 | 79 | 347 | 0.9 | 3.5 | 0.00 | 0.00 | 0.00 | 60 | 1006.0 |
| 20260505231451 | 79 | 25 | 1.7 | 4.3 | 0.00 | 0.00 | 0.00 | 59 | 1006.0 |
| 20260505230949 | 80 | 356 | 1.7 | 3.5 | 0.00 | 0.00 | 0.00 | 58 | 1006.1 |
| 20260505230447 | 80 | 30 | 3.5 | 4.3 | 0.00 | 0.00 | 0.00 | 58 | 1005.9 |
| 20260505225943 | 81 | 8 | 1.7 | 2.6 | 0.00 | 0.00 | 0.00 | 57 | 1005.7 |
| 20260505225440 | 82 | 317 | 1.7 | 3.5 | 0.00 | 0.00 | 0.00 | 57 | 1005.6 |
| 20260505224936 | 83 | 311 | 3.5 | 3.5 | 0.00 | 0.00 | 0.00 | 56 | 1005.3 |
| 20260505224433 | 84 | 319 | 0.9 | 3.5 | 0.00 | 0.00 | 0.00 | 55 | 1005.2 |
| 20260505223930 | 85 | 306 | 0.0 | 1.7 | 0.00 | 0.00 | 0.00 | 51 | 1005.3 |
| 20260505223427 | 86 | 314 | 0.0 | 1.7 | 0.00 | 0.00 | 0.00 | 51 | 1005.2 |
| 20260505222923 | 87 | 342 | 0.0 | 0.9 | 0.00 | 0.00 | 0.00 | 49 | 1005.0 |
| 20260505222420 | 87 | 38 | 0.0 | 2.6 | 0.00 | 0.00 | 0.00 | 46 | 1004.9 |
| 20260505221916 | 87 | 269 | 0.0 | 1.7 | 0.00 | 0.00 | 0.00 | 47 | 1004.8 |
| 20260505221413 | 88 | 318 | 0.0 | 1.7 | 0.00 | 0.00 | 0.00 | 45 | 1004.8 |
| 20260505220910 | 89 | 10 | 1.7 | 2.6 | 0.00 | 0.00 | 0.00 | 45 | 1004.6 |
| 20260505220407 | 89 | 62 | 0.0 | 0.0 | 0.00 | 0.00 | 0.00 | 45 | 1004.6 |
| 20260505215905 | 89 | 269 | 0.0 | 0.9 | 0.00 | 0.00 | 0.00 | 44 | 1004.8 |
| 20260505215403 | 89 | 269 | 0.0 | 1.7 | 0.00 | 0.00 | 0.00 | 45 | 1004.8 |
| 20260505214900 | 89 | 16 | 1.7 | 2.6 | 0.00 | 0.00 | 0.00 | 43 | 1004.7 |
| 20260505214358 | 91 | 209 | 0.0 | 2.6 | 0.00 | 0.00 | 0.00 | 44 | 1004.9 |
| 20260505213855 | 91 | 288 | 1.7 | 1.7 | 0.00 | 0.00 | 0.00 | 49 | 1004.7 |
| 20260505213353 | 91 | 197 | 2.6 | 4.3 | 0.00 | 0.00 | 0.00 | 47 | 1004.6 |
| 20260505212848 | 92 | 237 | 1.7 | 4.3 | 0.00 | 0.00 | 0.00 | 47 | 1004.4 |
| 20260505212346 | 92 | 254 | 0.9 | 3.5 | 0.00 | 0.00 | 0.00 | 46 | 1004.8 |
| 20260505211841 | 92 | 89 | 0.0 | 4.3 | 0.00 | 0.00 | 0.00 | 47 | 1004.8 |
| 20260505211339 | 92 | 239 | 0.9 | 3.5 | 0.00 | 0.00 | 0.00 | 47 | 1004.9 |
| 20260505210836 | 92 | 243 | 0.9 | 5.2 | 0.00 | 0.00 | 0.00 | 46 | 1004.9 |
| 20260505210333 | 92 | 226 | 0.0 | 3.5 | 0.00 | 0.00 | 0.00 | 45 | 1005.0 |
| 20260505205829 | 92 | 308 | 0.0 | 2.6 | 0.00 | 0.00 | 0.00 | 48 | 1004.9 |
| 20260505205328 | 91 | 302 | 1.7 | 2.6 | 0.00 | 0.00 | 0.00 | 48 | 1005.1 |
| 20260505204824 | 91 | 232 | 0.9 | 4.3 | 0.00 | 0.00 | 0.00 | 48 | 1004.9 |
| 20260505204322 | 90 | 224 | 3.5 | 4.3 | 0.00 | 0.00 | 0.00 | 50 | 1005.1 |
| 20260505203819 | 90 | 202 | 4.3 | 4.3 | 0.00 | 0.00 | 0.00 | 51 | 1005.1 |
| 20260505203316 | 90 | 256 | 2.6 | 3.5 | 0.00 | 0.00 | 0.00 | 52 | 1005.2 |
| 20260505202812 | 89 | 245 | 2.6 | 7.0 | 0.00 | 0.00 | 0.00 | 53 | 1005.3 |
| 20260505202308 | 90 | 221 | 5.2 | 6.1 | 0.00 | 0.00 | 0.00 | 51 | 1005.4 |
| 20260505201805 | 89 | 209 | 4.3 | 7.0 | 0.00 | 0.00 | 0.00 | 52 | 1005.5 |
| 20260505201303 | 89 | 253 | 1.7 | 2.6 | 0.00 | 0.00 | 0.00 | 54 | 1005.4 |
| 20260505200801 | 89 | 238 | 3.5 | 9.6 | 0.00 | 0.00 | 0.00 | 53 | 1005.2 |
| 20260505200257 | 89 | 214 | 3.5 | 6.1 | 0.00 | 0.00 | 0.00 | 53 | 1005.5 |
| 20260505195752 | 89 | 217 | 3.5 | 5.2 | 0.00 | 0.00 | 0.00 | 54 | 1005.3 |
| 20260505195251 | 88 | 248 | 2.6 | 5.2 | 0.00 | 0.00 | 0.00 | 55 | 1005.6 |
| 20260505194747 | 88 | 228 | 2.6 | 5.2 | 0.00 | 0.00 | 0.00 | 55 | 1005.5 |
| 20260505194244 | 87 | 235 | 2.6 | 3.5 | 0.00 | 0.00 | 0.00 | 56 | 1005.5 |
| 20260505193739 | 87 | 229 | 4.3 | 8.7 | 0.00 | 0.00 | 0.00 | 56 | 1005.7 |
| 20260505193237 | 88 | 206 | 3.5 | 4.3 | 0.00 | 0.00 | 0.00 | 56 | 1005.7 |
| 20260505192736 | 88 | 269 | 1.7 | 5.2 | 0.00 | 0.00 | 0.00 | 56 | 1005.7 |
| 20260505192233 | 87 | 219 | 4.3 | 6.1 | 0.00 | 0.00 | 0.00 | 57 | 1005.2 |
| 20260505191731 | 87 | 221 | 0.9 | 5.2 | 0.00 | 0.00 | 0.00 | 58 | 1005.3 |
| 20260505191229 | 86 | 258 | 2.6 | 5.2 | 0.00 | 0.00 | 0.00 | 58 | 1005.6 |
| 20260505190725 | 86 | 201 | 2.6 | 5.2 | 0.00 | 0.00 | 0.00 | 59 | 1005.4 |
| 20260505190225 | 85 | 264 | 1.7 | 8.7 | 0.00 | 0.00 | 0.00 | 59 | 1005.5 |
| 20260505185722 | 85 | 212 | 3.5 | 6.1 | 0.00 | 0.00 | 0.00 | 61 | 1005.6 |
| 20260505185218 | 84 | 236 | 2.6 | 7.0 | 0.00 | 0.00 | 0.00 | 61 | 1005.4 |
| 20260505184714 | 84 | 240 | 1.7 | 9.6 | 0.00 | 0.00 | 0.00 | 61 | 1005.5 |
| 20260505184212 | 84 | 224 | 2.6 | 9.6 | 0.00 | 0.00 | 0.00 | 61 | 1005.7 |
| 20260505183708 | 85 | 203 | 4.3 | 4.3 | 0.00 | 0.00 | 0.00 | 60 | 1005.8 |
| 20260505183206 | 85 | 227 | 0.9 | 4.3 | 0.00 | 0.00 | 0.00 | 61 | 1005.7 |
| 20260505182702 | 84 | 250 | 1.7 | 7.0 | 0.00 | 0.00 | 0.00 | 60 | 1005.5 |
| 20260505182159 | 84 | 256 | 1.7 | 5.2 | 0.00 | 0.00 | 0.00 | 61 | 1005.5 |
| 20260505181656 | 84 | 228 | 1.7 | 5.2 | 0.00 | 0.00 | 0.00 | 61 | 1005.6 |
| 20260505181153 | 84 | 254 | 2.6 | 7.0 | 0.00 | 0.00 | 0.00 | 62 | 1005.6 |
| 20260505180649 | 84 | 227 | 3.5 | 4.3 | 0.00 | 0.00 | 0.00 | 62 | 1005.8 |
| 20260505180147 | 85 | 287 | 0.0 | 4.3 | 0.00 | 0.00 | 0.00 | 62 | 1005.7 |
| 20260505175642 | 84 | 255 | 0.9 | 8.7 | 0.00 | 0.00 | 0.00 | 63 | 1005.8 |
| 20260505175139 | 84 | 272 | 1.7 | 6.1 | 0.00 | 0.00 | 0.00 | 64 | 1005.5 |
| 20260505174636 | 83 | 222 | 0.9 | 5.2 | 0.00 | 0.00 | 0.00 | 65 | 1005.7 |
| 20260505174132 | 83 | 189 | 6.1 | 10.4 | 0.00 | 0.00 | 0.00 | 64 | 1005.5 |
| 20260505173629 | 82 | 220 | 3.5 | 11.3 | 0.00 | 0.00 | 0.00 | 64 | 1005.6 |
| 20260505173126 | 82 | 259 | 2.6 | 6.1 | 0.00 | 0.00 | 0.00 | 64 | 1005.7 |
| 20260505172623 | 82 | 213 | 4.3 | 7.8 | 0.00 | 0.00 | 0.00 | 65 | 1005.7 |
| 20260505172120 | 82 | 233 | 3.5 | 7.8 | 0.00 | 0.00 | 0.00 | 64 | 1005.6 |
| 20260505171614 | 82 | 213 | 2.6 | 5.2 | 0.00 | 0.00 | 0.00 | 67 | 1005.5 |
| 20260505171112 | 81 | 233 | 2.6 | 6.1 | 0.00 | 0.00 | 0.00 | 67 | 1005.8 |
| 20260505170609 | 81 | 229 | 3.5 | 7.8 | 0.00 | 0.00 | 0.00 | 67 | 1005.7 |
| 20260505170105 | 80 | 279 | 2.6 | 12.2 | 0.00 | 0.00 | 0.00 | 68 | 1005.6 |
| 20260505165600 | 81 | 290 | 1.7 | 4.3 | 0.00 | 0.00 | 0.00 | 68 | 1005.8 |
| 20260505165056 | 81 | 244 | 1.7 | 8.7 | 0.00 | 0.00 | 0.00 | 68 | 1005.8 |
| 20260505164552 | 80 | 216 | 3.5 | 6.1 | 0.00 | 0.00 | 0.00 | 68 | 1005.8 |
| 20260505164050 | 80 | 235 | 2.6 | 4.3 | 0.00 | 0.00 | 0.00 | 68 | 1005.8 |
| 20260505163548 | 80 | 215 | 1.7 | 5.2 | 0.00 | 0.00 | 0.00 | 70 | 1005.6 |
| 20260505163045 | 79 | 212 | 2.6 | 8.7 | 0.00 | 0.00 | 0.00 | 70 | 1005.5 |
| 20260505162543 | 79 | 210 | 2.6 | 7.8 | 0.00 | 0.00 | 0.00 | 71 | 1005.5 |
| 20260505162041 | 79 | 198 | 4.3 | 7.0 | 0.00 | 0.00 | 0.00 | 70 | 1005.6 |
| 20260505161537 | 79 | 233 | 1.7 | 7.8 | 0.00 | 0.00 | 0.00 | 70 | 1005.3 |